Home   Weather   Ellwangen (Jagst)   Past weeks

Flag for Germany Past Weather in Ellwangen (Jagst), Baden-Württemberg, Germany — Yesterday and Last 2 Weeks

Now
52 °F

Passing clouds.


Feels Like: 49 °F
Forecast: 49 / 67 °F
Wind: 7 mph from Southeast

Location: Niederstetten

Current Time: Sep 25, 2016 at 7:30:19 AM

Latest Report: Sep 25, 2016 at 6:20 AM


Visibility: N/A

Pressure: 30.15 "Hg

Humidity: 77%

Dew Point: 45 °F

Location of Ellwangen (Jagst)Location

Past Weather in Ellwangen (Jagst) — Graph

°F

Ellwangen (Jagst) Temperature Yesterday

Maximum temperature yesterday: 70 °F (at 2:20 PM)
Minimum temperature yesterday: 48 °F (at 3:20 AM)
Average temperature yesterday: 58 °F

High & Low Weather Summary for the Past Weeks

 TemperatureHumidityPressure
High86 °F (Sep 12, 3:20 PM)100% (Sep 18, 7:20 PM)30.33 "Hg (Sep 18, 7:20 PM)
Low43 °F (Sep 22, 5:20 AM)31% (Sep 12, 3:20 PM)29.86 "Hg (Sep 15, 5:20 AM)
Average63 °F69%30.06 "Hg
* Reported Sep 10 5:20 AM — Sep 25 5:20 AM, Ellwangen (Jagst), Weather by CustomWeather, © 2016

Note: Actual official high and low records may vary slightly from our data, if they occured in-between our weather recording intervals... More about our weather records

Advertising

Ellwangen (Jagst) Weather History for the Previous 24 Hours

Scroll right to see more
 ConditionsComfort  
Time TempWeatherWind HumidityBarometerVisibility
5:20 AM
Sun, Sep 25
52 °FPassing clouds.6 mph82%30.18 "HgN/A
4:20 AM52 °FPassing clouds.6 mph82%30.18 "HgN/A
3:20 AM54 °FCool.6 mph77%30.18 "HgN/A
2:20 AM54 °FPassing clouds.6 mph77%30.21 "HgN/A
1:20 AM55 °FPassing clouds.6 mph72%30.21 "HgN/A
12:20 AM54 °FPassing clouds.6 mph77%30.21 "HgN/A
11:20 PM
Sat, Sep 24
55 °FPassing clouds.6 mph72%30.21 "HgN/A
10:20 PM55 °FPassing clouds.5 mph72%30.21 "HgN/A
9:20 PM57 °FPassing clouds.5 mph67%30.24 "HgN/A
8:20 PM59 °FPassing clouds.3 mph68%30.24 "HgN/A
7:20 PM61 °FPassing clouds.3 mph59%30.24 "HgN/A
6:20 PM66 °FPassing clouds.5 mph49%30.24 "HgN/A
5:20 PM68 °FPassing clouds.5 mph43%30.24 "HgN/A
4:20 PM68 °FPassing clouds.7 mph43%30.27 "HgN/A
3:20 PM70 °FScattered clouds.6 mph40%30.27 "HgN/A
2:20 PM70 °FScattered clouds.8 mph43%30.30 "HgN/A
1:20 PM68 °FPassing clouds.7 mph43%30.30 "HgN/A
12:20 PM66 °FPassing clouds.8 mph49%30.33 "HgN/A
11:20 AM64 °FPassing clouds.6 mph56%30.33 "HgN/A
10:20 AM64 °FFog.5 mph60%30.33 "HgN/A
9:20 AM57 °FFog.5 mph77%30.33 "HgN/A
8:20 AM50 °FFog.3 mph82%30.33 "HgN/A
7:20 AM48 °FFog.3 mph94%30.33 "HgN/A
Weather by CustomWeather, © 2016

See weather overviewHow to use our weather pages